Weather History for Hatteras, NC

Change the Weather History Date:

Tuesday, October 29, 2013

  Actual Average Record
Temperature  
Mean Temperature 63 °F 62 °F  
Max Temperature 70 °F 69 °F 80 °F (1984)
Min Temperature 56 °F 56 °F 36 °F (1976)
Degree Days  
Heating Degree Days 2 4  
Month to date heating degree days 47 63  
Since 1 July heating degree days 51 66  
Cooling Degree Days 0 1  
Month to date cooling degree days 131 95  
Year to date cooling degree days 1967 1687  
Growing Degree Days 12 (Base 50)    
Moisture  
Dew Point 55 °F    
Average Humidity 77    
Maximum Humidity 93    
Minimum Humidity 61    
Precipitation  
Precipitation 0.00 in 0.16 in 1.88 in (2003)
Month to date precipitation 9.44 5.06  
Year to date precipitation 45.47 48.50  
Snow  
Snow 0.00 in - - ()
Month to date snowfall 0.0  
Since 1 July snowfall 0.0  
Snow Depth 0.00 in    
Sea Level Pressure  
Sea Level Pressure 30.28 in    
Wind  
Wind Speed 5 mph (NNE)    
Max Wind Speed 10 mph    
Max Gust Speed 16 mph    
Visibility 10 miles    
Events      
T = Trace of Precipitation, MM = Missing Value Source: NWS Daily Summary

Daily Weather History Graph

Daily Weather History Graph

Search for Another Location

Airport:

Trip Planner

Search our weather history database for the weather conditions in past years. The results will help you decide how hot, cold, wet, or windy it might be!

Date:

Astronomy

Oct. 29, 2013 Rise Set
Actual Time 7:21 AM EDT 6:10 PM EDT
Civil Twilight 6:55 AM EDT 6:36 PM EDT
Nautical Twilight 6:25 AM EDT 7:06 PM EDT
Astronomical Twilight 5:55 AM EDT 7:36 PM EDT
Moon 2:19 AM EDT (10/29) 3:13 PM EDT (10/29)
Length of Visible Light 11h 41m
Length of Day
10h 49m
Waning Crescent, 25% of the Moon is Illuminated
Oct 29
Waning Crescent
Nov 3
New
Nov 10
First Quarter
Nov 17
Full
Nov 25
Last Quarter

Hourly Weather History & Observations

Time (EDT) Temp. Dew Point Humidity Pressure Visibility Wind Dir Wind Speed Gust Speed Precip Events Conditions
12:51 AM 59.0 °F 52.0 °F 78% 30.25 in 10.0 mi NNE 3.5 mph - N/A   Mostly Cloudy
1:51 AM 59.0 °F 51.1 °F 75% 30.25 in 10.0 mi North 3.5 mph - N/A   Mostly Cloudy
2:51 AM 59.0 °F 51.1 °F 75% 30.24 in 10.0 mi Calm Calm - N/A   Scattered Clouds
3:51 AM 55.9 °F 53.1 °F 90% 30.24 in 10.0 mi NNE 3.5 mph - N/A   Clear
4:51 AM 59.0 °F 53.1 °F 81% 30.25 in 10.0 mi North 3.5 mph - N/A   Clear
5:51 AM 57.9 °F 55.0 °F 90% 30.27 in 10.0 mi North 3.5 mph - N/A   Clear
6:51 AM 57.9 °F 54.0 °F 87% 30.27 in 10.0 mi NNE 3.5 mph - N/A   Clear
7:51 AM 59.0 °F 55.0 °F 87% 30.28 in 10.0 mi NNE 3.5 mph - N/A   Clear
8:51 AM 63.0 °F 55.0 °F 75% 30.30 in 10.0 mi NNE 3.5 mph - N/A   Clear
9:51 AM 64.9 °F 55.0 °F 70% 30.32 in 10.0 mi Variable 5.8 mph - N/A   Clear
10:51 AM 66.9 °F 55.9 °F 68% 30.31 in 10.0 mi NNE 8.1 mph - N/A   Clear
11:51 AM 68.0 °F 55.0 °F 63% 30.31 in 10.0 mi NNE 8.1 mph - N/A   Clear
12:51 PM 69.1 °F 55.9 °F 63% 30.29 in 10.0 mi Variable 4.6 mph - N/A   Clear
1:51 PM 69.1 °F 55.9 °F 63% 30.27 in 10.0 mi NNE 5.8 mph - N/A   Clear
2:51 PM 68.0 °F 55.9 °F 65% 30.27 in 10.0 mi NNE 8.1 mph - N/A   Clear
3:51 PM 68.0 °F 57.0 °F 68% 30.27 in 10.0 mi Variable 4.6 mph - N/A   Clear
4:51 PM 66.0 °F 57.0 °F 73% 30.28 in 10.0 mi Variable 6.9 mph - N/A   Clear
5:51 PM 63.0 °F 55.0 °F 75% 30.29 in 10.0 mi Variable 5.8 mph - N/A   Clear
6:51 PM 62.1 °F 55.0 °F 78% 30.29 in 10.0 mi NNE 5.8 mph - N/A   Clear
7:51 PM 61.0 °F 55.0 °F 81% 30.30 in 10.0 mi NNE 5.8 mph - N/A   Clear
8:51 PM 61.0 °F 55.9 °F 83% 30.31 in 10.0 mi NNE 4.6 mph - N/A   Clear
9:51 PM 60.1 °F 55.0 °F 83% 30.32 in 10.0 mi NE 4.6 mph - N/A   Clear
10:51 PM 59.0 °F 55.9 °F 90% 30.32 in 10.0 mi NE 4.6 mph - N/A   Clear
11:51 PM 59.0 °F 55.0 °F 87% 30.30 in 10.0 mi NE 4.6 mph - N/A   Clear